Location: Antin
(43.3330°N, 0.2804°E)
Time: 03:52:06
(UTC+00:00)

CZ-2C R/B - Pass Details

Date: 16 October 2021
Orbit: 387 x 573 km, 35.0° (Epoch: 02 December)

Event Time Altitude Azimuth Distance (km) Brightness Sun altitude
Rises 19:09:31 0° 233° (SW) 2,351 5.2 -21.7°
Reaches altitude 10° 19:12:13 10° 211° (SSW) 1,458 3.7 -22.2°
Enters shadow 19:12:56 13° 201° (SSW) 1,288 3.3 -22.3°
